User: anonymous   Login
Location: Unspecified
(0.0000°N, 0.0000°E)
Time: 11:58:34
(UTC+00:00)
Language:

AUBIESAT-1 - Orbit

View from above orbital plane
View from above orbital plane
View from above satellite
View from above satellite

Ground track
Ground track

The orbit data is extracted from the following two-line orbital elements,

1 37854U 11061E   15181.47434010  .00002991  00000-0  18278-3 0  9995
2 37854 101.7169 042.6304 0186889 031.9572 020.4056 14.98453118199213
Epoch (UTC): 30 June 2015 11:23:02
Eccentricity: 0.0186889
inclination: 101.7169°
perigee height: 442 km
apogee height: 701 km
right ascension of ascending node: 42.6304°
argument of perigee: 31.9572°
revolutions per day: 14.98453118
mean anomaly at epoch: 20.4056°
orbit number at epoch: 19921

The dashed part of the orbit path shows where the satellite is in the earth's shadow,  

DLR